Location: DARK SKY Beskydy - Park tmavé oblohy, www.darkskybeskydy.cz
(49.4926°N, 18.5016°E)
Time: 10:57:12
(UTC+02:00)

BlueWalker 3 - Pass Details

Date: 18 June 2024
Orbit: 480 x 491 km, 53.2° (Epoch: 23 July)

Event Time Altitude Azimuth Distance (km) Brightness Sun altitude
Rises 01:51:25 0° 282° (WNW) 2,537 5.5 -15.7°
Reaches altitude 10° 01:53:38 10° 289° (WNW) 1,657 4.6 -15.6°
Maximum altitude 01:57:15 46° 4° (N) 654 3.0 -15.4°
Drops below altitude 10° 02:00:52 10° 79° (E) 1,657 4.9 -15.3°
Sets 02:03:05 0° 85° (E) 2,537 5.8 -15.2°
